Torna al catalogo

MERIDIAN 8

AttivoMilitareHEO
NORAD 44453·PAYLOAD·🇷🇺 Russia

Lanciato Jul 30, 2019 da Plesetsk Cosmodrome

Loading…

Prossimi Passaggi (prossime 24 ore)

TLE

AggiornatoSource: Space-Track

Epoca: Sep 14, 2026, 10:48 UTC

1 44453U 19046A   26257.45019094  .00000067  00000-0  00000-0 0  9997
2 44453  63.2198  39.1547 7096700 275.0674  14.6004  2.00608501 52138

Traccia MERIDIAN 8 in tempo reale con AllMySat

Download on the App Store